Simultaneous Nadir Overpasses (SNOs) Predictions

Prediction of SNOs between NOAA-21 and PACE Satellite Orbit:

Table of predicted SNOs for the next 14.0 days since TLE Epoch: 11/15/2024
Index Date (NOAA-21) Time (NOAA-21) Lat,Lon (NOAA-21) SZA (NOAA-21 ) Date (PACE) Time (PACE) Lat,Lon (PACE) SZA (PACE ) Distance(km) Time Diff (sec)
1 11/16/2024 17:06:12 80.16,-116.42 100.90 11/16/2024 17:06:10 80.16,-116.38 100.89 0.72 2
2 11/18/2024 20:41:54 -80.19, 9.30 78.53 11/18/2024 20:42:11 -80.19, 9.34 78.54 0.91 17
3 11/21/2024 00:17:35 80.20, 135.21 102.00 11/21/2024 00:18:11 80.20, 135.20 101.99 0.27 36
4 11/21/2024 01:08:15 -80.06, -55.93 78.26 11/21/2024 01:07:15 -80.05, -55.79 78.26 3.05 60
5 11/23/2024 03:53:15 -80.19, -98.58 77.56 11/23/2024 03:54:09 -80.19, -98.70 77.57 2.33 54
6 11/23/2024 04:43:54 80.03, 70.48 102.15 11/23/2024 04:43:13 80.03, 70.39 102.18 1.89 41
7 11/25/2024 07:28:58 80.28, 26.48 103.06 11/25/2024 07:30:09 80.28, 26.60 103.01 2.16 71
8 11/25/2024 08:19:36 -80.08,-163.98 77.32 11/25/2024 08:19:12 -80.09,-164.07 77.30 1.93 24
9 11/27/2024 11:55:16 80.10, -38.08 103.13 11/27/2024 11:55:09 80.10, -38.15 103.14 1.29 7



Historial Predications of SNOs between NOAA-21 and PACE
